Temp
11 12 13 13 14 15 14 14 12 12 12 15 14 11 10 11 13 19 19 19 19 19 19 18 17 16 16 14 13 11 11 10 7 5 4 3 2 2 2 2 2 2 1 1
11 13 12 12 14 14 15 16 16 14 13 17 15 12 11 12 13 13 16 16 17 18 18 18 17 15 15 15 14 12 11 9 6 5 4 2 1 1 1 1 0 -0 0 1
10 13 13 11 12 14 16 16 17 15 15 16 14 12 12 13 13 13 15 14 15 15 16 15 15 15 14 14 13 12 11 9 6 5 2 1 1 1 0 -0 -0 -0 0 -0
10 11 9 14 16 17 16 17 17 17 17 16 13 13 11 13 14 15 16 14 14 14 15 15 15 14 13 13 13 11 12 11 8 5 3 1 0 0 -0 -0 -0 -1 -0 -0
9 10 12 14 16 15 14 16 17 18 15 12 13 13 13 15 16 16 15 15 14 14 14 14 14 14 14 14 14 12 11 11 9 5 3 1 0 -0 -0 -0 -0 -1 -1 -1
10 9 10 11 10 11 12 13 17 17 16 12 13 11 14 15 15 14 15 14 14 15 14 14 14 13 14 14 14 13 13 11 9 5 3 1 1 0 -0 -1 -1 -1 -1 -2
9 9 10 6 7 10 10 9 5 13 16 14 12 14 15 14 14 15 15 14 13 14 14 13 12 13 13 13 13 12 11 10 9 5 3 2 1 0 -1 -1 -2 -2 -2 -2
9 9 7 6 8 6 5 6 5 11 14 15 12 14 14 14 14 14 13 13 13 13 12 12 12 12 13 11 9 9 8 7 6 5 3 2 1 -1 -1 -2 -2 -2 -3 -3
8 8 8 6 5 6 6 5 5 8 13 13 13 13 14 14 14 14 14 15 14 13 12 11 10 11 9 8 6 5 3 4 3 2 2 1 -1 -2 -2 -2 -2 -3 -3 -3
9 10 11 8 7 8 6 5 5 9 12 13 14 14 14 14 14 14 14 13 14 13 12 9 7 6 6 6 5 4 1 1 0 0 -1 -1 -1 -2 -2 -2 -3 -3 -3 -3
10 11 11 10 11 10 9 7 5 6 10 11 13 14 14 14 13 13 13 13 13 12 12 9 7 5 3 4 4 2 0 -0 -1 -1 -1 -2 -2 -2 -2 -2 -2 -2 -2 -2
10 11 11 10 11 10 10 10 7 4 6 9 12 14 14 13 13 12 12 12 12 11 11 10 8 5 3 3 3 2 1 1 0 0 -0 -0 -1 -2 -2 -2 -2 -2 -2 -2
11 12 11 11 11 11 11 10 10 6 6 9 12 13 13 13 13 11 13 13 12 11 10 9 8 6 2 3 4 4 4 2 1 1 0 0 -0 -0 -1 -3 -2 -2 -2 -2
13 12 11 11 11 12 11 11 11 10 5 7 10 13 13 13 11 12 10 9 11 11 9 8 7 5 2 2 3 3 4 2 1 1 0 -0 -1 -1 -1 -2 -2 -3 -3 -3
11 12 11 12 12 12 12 11 11 11 10 9 10 12 13 12 10 8 7 6 6 6 5 6 5 4 2 1 1 1 2 2 1 0 -0 -1 -1 -2 -2 -2 -3 -3 -4 -4
9 10 10 10 11 11 11 11 11 11 11 9 9 11 11 10 7 7 6 6 7 7 5 0 1 1 1 1 1 1 1 1 -0 -0 -1 -1 -2 -1 -2 -2 -2 -3 -4 -4
6 7 8 9 10 11 11 11 11 11 10 9 8 7 8 6 4 3 2 2 -0 0 -0 0 -1 -1 -0 1 1 1 1 -0 -1 -1 -1 -1 -1 -1 -1 -2 -2 -3 -4 -4
6 7 8 9 9 11 11 11 11 11 9 8 5 1 1 2 5 2 0 0 -0 -1 -1 -1 -1 -1 -0 0 0 1 1 0 -1 -1 -1 -1 -1 -1 -1 -1 -2 -2 -3 -4
8 9 9 10 9 8 8 8 9 8 2 1 1 1 0 0 0 -0 -1 -1 -0 1 -1 -1 -1 -1 1 1 1 0 0 1 0 -0 -0 -1 -1 -1 -1 -2 -2 -2 -3 -4
5 6 7 4 3 3 2 2 2 1 0 -0 -0 -0 -0 -1 -1 -1 -1 1 1 0 -1 -0 -1 0 1 1 0 1 0 -0 0 -0 -0 -1 -1 -1 -1 -2 -2 -2 -2 -3
2 2 1 1 1 0 -0 -0 -0 0 -0 -0 0 -0 -0 -1 -1 -1 -1 3 -0 -2 -2 -2 -1 1 1 -0 -1 -0 0 0 -0 -0 -0 -1 -1 -1 -2 -1 -2 -2 -2 -3
2 2 1 1 1 0 -0 -0 -1 -1 -1 -1 -1 -1 -1 -1 -1 -1 -1 1 -1 -2 -3 -1 -1 -2 -3 -4 -3 -2 -1 -1 -0 -0 -1 -1 -1 -1 -1 -2 -2 -2 -2 -3
2 1 1 1 1 1 -1 -1 -1 -0 -1 -1 -1 -1 0 1 1 2 1 -1 -1 -3 -3 -3 -3 -3 -4 -4 -3 -2 -2 -2 -1 -1 -1 -1 -1 -1 -2 -2 -2 -2 -2 -2
2 2 1 2 2 2 2 1 0 -0 -1 -1 -1 -0 1 1 0 0 -1 -2 -3 -5 -4 -3 -3 -3 -3 -3 -3 -2 -2 -2 -1 -1 -1 -1 -1 -2 -2 -2 -2 -2 -2 -2
2 2 2 1 4 4 3 3 3 3 2 2 2 1 1 1 0 -1 -3 -3 -4 -4 -3 -3 -3 -3 -3 -3 -3 -2 -2 -2 -2 -1 -1 -2 -2 -2 -2 -2 -2 -2 -2 -2
3 3 2 2 2 3 3 3 3 3 3 2 2 1 -0 -1 -2 -2 -3 -5 -4 -4 -3 -3 -3 -3 -3 -3 -3 -3 -3 -2 -2 -2 -2 -2 -2 -2 -2 -3 -3 -3 -3 -3
2 1 2 2 1 2 3 3 3 3 3 3 2 -0 -1 -2 -3 -3 -5 -4 -4 -4 -4 -3 -4 -4 -4 -4 -4 -3 -3 -3 -3 -3 -3 -3 -3 -3 -3 -3 -3 -4 -4 -4
Height
672 665 652 647 639 632 637 641 649 632 633 618 619 624 622 626 611 590 595 599 605 610 614 618 624 632 637 642 648 654 659 662 669 675 680 683 689 693 699 705 711 715 720 722
662 651 650 645 635 624 621 615 608 613 620 605 614 613 619 626 621 620 609 612 618 614 615 617 626 633 636 642 647 652 655 660 665 672 676 682 687 692 696 698 704 710 710 717
655 640 637 637 630 618 608 604 601 601 601 605 608 616 612 625 623 620 615 622 625 626 624 627 631 631 630 640 646 650 653 658 661 667 672 674 675 686 698 699 699 705 710 717
652 645 650 612 608 599 595 590 590 589 588 594 605 607 621 621 614 614 619 621 624 626 630 635 634 636 638 637 639 647 652 654 658 664 668 675 679 677 682 694 701 705 708 712
653 636 617 608 601 597 595 581 581 578 584 601 604 608 610 608 606 609 618 621 627 625 630 632 635 637 636 635 637 644 650 652 655 659 666 671 674 680 682 685 690 699 708 714
641 637 626 619 623 620 611 585 576 571 576 590 601 606 602 605 601 610 620 620 621 623 626 631 635 638 638 634 635 640 644 649 652 656 661 666 672 676 677 683 691 695 699 704
629 633 617 653 636 621 617 620 627 589 572 579 596 592 593 608 599 610 620 623 622 621 625 631 635 636 638 630 633 640 644 649 652 655 656 659 663 671 676 682 685 692 699 705
633 626 637 649 633 642 648 636 630 596 576 577 593 590 599 604 605 611 617 623 624 620 623 633 634 636 636 633 639 646 652 647 652 656 654 656 663 671 673 681 687 691 695 702
651 646 641 649 652 650 648 643 632 614 589 588 590 592 598 604 609 615 619 623 618 615 622 634 640 640 640 640 646 654 651 647 653 653 657 661 668 672 675 679 683 688 693 698
646 633 629 639 643 641 643 642 632 616 602 595 591 596 602 607 613 615 615 618 609 619 633 647 649 647 641 642 649 652 646 653 658 655 659 665 668 670 674 677 682 687 691 696
631 625 629 630 630 631 633 638 634 623 613 607 600 601 604 605 611 618 613 612 622 630 634 643 643 644 643 646 645 655 658 651 652 658 664 667 670 673 676 678 681 683 687 690
629 626 628 629 629 630 628 626 630 633 624 616 607 604 605 607 612 614 619 623 630 633 633 635 642 647 650 652 653 652 651 650 657 660 662 667 671 674 676 678 681 684 686 688
624 625 626 626 624 624 624 624 624 628 627 621 612 608 612 613 616 620 621 623 627 631 636 643 646 648 648 650 654 648 651 656 659 662 665 668 670 672 674 677 678 682 685 689
615 615 618 621 620 617 620 621 622 623 632 629 620 613 613 616 622 623 630 634 633 635 641 643 646 647 651 650 653 652 655 659 661 663 665 667 669 672 674 676 678 681 685 689
614 613 616 616 616 616 616 618 619 619 621 625 623 616 614 620 626 633 636 640 641 643 644 647 649 649 650 652 655 656 657 661 662 664 666 668 669 671 674 676 678 683 685 690
620 617 614 613 612 612 611 614 614 614 614 620 621 619 621 624 631 635 639 641 642 643 647 650 650 651 651 654 654 657 659 661 663 665 667 669 669 671 672 674 677 681 685 689
617 617 613 613 610 608 608 609 609 610 613 621 623 628 628 634 638 640 643 646 648 649 649 650 651 653 654 654 653 656 658 659 662 665 666 668 668 668 670 672 673 677 682 686
617 616 614 612 611 605 606 608 609 610 615 620 627 634 637 638 638 643 647 648 649 651 650 653 653 654 654 654 653 654 656 658 660 662 663 664 665 666 668 669 672 674 678 682
613 611 611 609 611 614 614 615 612 614 622 629 634 638 642 644 644 644 646 649 649 650 652 654 652 653 654 653 652 653 653 655 656 658 659 660 662 664 665 667 668 671 674 677
626 622 619 625 626 625 626 626 625 626 628 631 636 639 643 646 645 648 649 647 648 650 651 652 652 650 651 650 650 650 651 653 653 653 654 655 657 659 661 663 664 667 670 672
637 635 634 634 634 633 632 631 632 635 637 638 640 641 645 647 646 648 649 647 650 651 651 650 649 649 649 648 647 648 649 649 649 650 650 651 653 655 657 658 660 662 664 667
641 640 639 638 636 635 635 635 637 638 639 642 643 643 646 648 648 649 650 649 650 649 649 648 648 648 647 646 647 647 648 647 646 646 646 646 648 649 651 653 654 656 659 662
644 642 641 641 640 640 640 640 641 641 642 644 645 644 646 647 648 648 648 650 650 649 649 648 647 646 645 645 645 646 645 644 643 642 642 642 643 644 646 647 648 650 653 656
645 644 642 641 641 640 639 641 642 643 644 644 644 646 648 648 649 649 649 649 650 650 648 647 646 644 643 644 644 643 643 641 640 638 638 638 639 640 642 643 644 646 648 651
645 643 642 642 638 638 639 640 641 642 643 644 646 647 648 648 648 648 648 649 648 648 647 646 645 645 644 644 643 643 641 640 638 636 636 636 636 638 639 640 641 642 645 647
644 643 642 641 639 638 638 639 639 640 641 643 644 645 646 647 648 648 647 647 648 647 647 647 647 646 645 645 644 643 642 641 638 637 636 636 636 637 638 639 640 642 643 645
647 645 642 640 638 637 637 638 638 639 639 640 642 644 645 646 646 646 647 647 648 648 648 649 648 648 647 645 645 645 644 643 641 640 639 638 638 639 640 641 641 642 644 645
Wind_Speed
14 19 22 23 26 23 21 19 16 19 18 17 13 4 6 18 19 4 11 10 9 8 8 7 8 9 7 11 13 15 15 18 20 21 23 28 32 36 39 38 40 41 39 36
16 17 20 24 25 24 26 24 23 15 23 17 8 5 4 10 9 5 7 6 1 4 8 8 8 9 9 10 13 17 19 18 19 20 27 30 31 33 39 42 40 38 36 38
19 19 21 18 16 25 27 25 22 16 20 14 15 13 5 11 11 9 3 2 2 3 4 4 5 10 11 12 13 15 15 17 20 23 24 32 35 34 29 29 36 39 38 35
16 20 22 21 24 31 28 25 15 16 17 12 12 11 13 18 14 14 8 10 7 5 4 5 7 8 9 12 14 13 15 16 18 20 18 22 27 33 36 33 31 31 34 36
15 18 24 27 23 19 21 21 21 21 10 7 11 14 18 18 14 11 10 7 6 8 7 6 5 5 8 9 9 12 13 15 17 19 19 22 25 26 30 36 39 34 31 27
14 18 18 10 19 16 17 18 18 13 13 16 17 11 10 11 16 12 11 10 7 6 7 6 6 6 7 7 9 10 12 14 17 21 21 23 24 27 27 28 24 29 37 40
15 15 5 15 21 6 6 7 25 21 14 20 15 14 15 14 14 11 8 8 9 8 6 4 4 4 5 3 2 1 3 4 8 18 22 26 26 25 24 25 27 28 29 31
5 4 2 14 9 8 10 13 17 24 11 17 12 18 17 14 12 11 8 8 9 7 8 4 3 2 3 8 9 4 1 3 3 9 14 19 22 22 25 26 25 25 28 27
2 4 8 3 4 8 13 16 11 18 13 13 17 16 14 11 11 10 12 9 10 10 10 8 5 5 8 7 5 3 5 8 6 6 11 18 22 21 21 23 24 25 27 27
7 5 8 7 8 5 7 16 17 13 11 3 12 14 14 11 9 9 9 7 10 12 10 8 8 9 11 9 6 6 10 8 7 8 10 15 16 19 19 21 21 23 24 25
9 7 10 1 6 6 9 12 12 18 10 4 9 10 9 10 11 10 9 11 10 8 10 10 10 10 10 9 10 7 7 9 8 6 7 10 12 16 16 19 23 25 26 28
8 8 9 10 9 9 11 9 5 9 11 0 3 9 8 11 8 9 10 11 9 8 9 10 10 9 8 7 7 8 9 8 6 5 7 7 9 10 12 14 20 22 24 26
13 12 13 14 14 10 10 5 6 6 12 11 6 5 8 8 9 9 9 8 9 8 9 7 7 8 7 6 4 7 6 6 6 5 6 8 9 11 9 6 15 19 20 25
18 16 14 15 11 11 7 7 7 0 5 11 8 7 8 9 8 9 8 6 4 8 6 4 4 7 6 5 2 4 4 6 7 7 8 8 9 9 10 12 12 14 22 27
18 13 14 15 13 14 11 8 9 8 7 8 6 8 8 10 10 9 8 6 6 7 6 3 2 5 4 4 4 4 3 5 5 7 8 9 10 12 11 13 14 14 19 25
21 17 13 14 13 14 11 9 10 8 6 5 3 4 8 10 11 10 7 4 5 4 4 4 3 3 2 4 5 5 6 6 8 8 9 11 12 13 13 14 16 18 20 21
17 15 14 13 15 12 11 10 10 8 7 7 5 3 7 9 9 9 8 6 5 4 3 2 1 2 4 6 8 7 8 9 11 9 11 12 12 13 14 14 16 19 21 25
7 12 12 10 12 9 6 6 8 7 8 8 10 7 6 2 7 7 6 4 3 2 3 0 2 4 5 5 7 9 10 11 14 13 12 12 12 13 14 15 16 18 19 26
6 3 5 3 6 5 4 6 9 10 15 14 10 7 7 7 7 7 5 3 2 3 5 1 3 5 6 5 4 5 10 11 13 13 13 13 14 13 14 16 17 20 21 25
14 14 11 10 8 6 4 5 10 11 13 14 13 9 7 6 8 5 2 2 3 3 2 3 6 5 5 6 6 6 8 12 12 12 14 14 15 16 16 18 18 21 23 25
11 8 6 5 6 7 8 9 10 8 11 12 10 8 7 6 6 2 4 2 3 1 4 6 5 5 5 4 6 8 11 13 13 14 14 15 15 16 17 18 20 21 23 25
7 6 5 4 5 6 8 11 12 10 11 10 10 11 7 5 4 3 0 3 3 5 6 5 5 6 8 10 8 11 13 13 13 15 15 16 17 17 18 19 20 22 24 25
7 6 4 3 3 4 7 8 8 8 8 6 7 7 2 3 2 0 1 1 4 4 6 5 7 10 10 9 9 12 15 16 16 17 17 18 19 18 18 19 20 21 23 24
7 5 5 5 2 3 3 5 5 7 8 5 4 5 3 3 2 1 2 3 4 4 5 6 8 9 8 8 9 10 11 13 14 15 17 19 18 18 16 17 18 19 20 23
8 8 2 2 2 2 3 5 6 5 4 5 5 5 4 1 1 1 1 1 2 4 6 7 8 7 6 5 4 5 6 7 7 6 7 10 11 11 12 13 14 15 17 20
8 5 7 7 6 5 3 6 4 7 7 6 6 5 4 3 3 1 0 2 2 3 4 5 6 6 5 4 4 4 4 4 5 3 1 1 2 4 5 5 7 9 12 12
10 10 9 8 7 7 7 7 4 4 7 2 1 7 6 5 3 1 0 0 1 2 2 3 3 4 4 5 6 6 6 7 9 8 7 6 5 4 3 3 4 5 7 9
Wind_Direction
246 268 287 291 288 292 287 274 267 290 286 284 288 267 4 320 337 230 149 156 169 173 165 152 150 153 164 161 171 173 174 175 164 165 181 185 183 187 186 185 187 185 181 181
266 276 273 270 273 278 273 281 283 280 265 265 238 137 158 273 298 20 17 20 342 164 167 162 161 179 172 175 179 179 177 181 173 176 191 192 189 189 189 189 188 185 181 184
272 277 283 275 265 263 274 269 269 273 256 247 204 200 171 230 241 285 248 154 145 116 113 117 182 185 174 195 190 190 187 191 182 187 184 185 185 187 194 189 184 186 184 181
269 278 269 271 261 255 259 266 276 264 247 243 203 184 210 232 218 223 194 172 159 138 140 183 162 175 170 189 184 194 206 201 196 186 185 188 185 181 181 187 186 185 183 180
254 262 273 277 272 308 299 260 244 241 221 176 189 204 227 226 195 173 176 147 174 164 188 178 194 194 188 182 192 192 212 212 192 183 188 186 186 187 184 183 186 188 185 177
228 252 264 357 337 327 321 270 274 261 227 173 193 213 184 168 145 141 169 163 174 178 172 188 185 211 219 207 193 210 212 213 199 188 189 189 193 191 188 188 191 183 177 180
223 242 270 350 333 295 260 337 314 294 240 171 182 215 154 156 140 152 163 155 146 147 137 140 174 196 202 133 121 200 248 239 194 182 188 196 194 193 187 181 176 175 173 172
328 284 332 3 2 9 321 309 316 318 169 189 124 140 144 149 149 149 154 156 142 124 110 104 100 142 115 78 53 38 19 131 179 198 186 195 191 183 176 174 170 168 164 162
260 300 276 215 250 303 335 323 306 315 329 130 149 136 142 144 156 159 165 167 141 123 107 92 74 109 105 91 106 152 119 112 164 190 191 191 179 170 169 170 169 168 167 166
318 325 316 204 257 256 335 319 319 313 321 166 140 137 144 145 160 175 126 154 118 122 122 127 118 101 96 96 107 98 95 111 158 159 175 183 175 173 172 173 173 175 175 173
301 298 342 210 291 328 315 308 343 340 342 284 142 138 129 126 121 127 129 110 117 125 115 116 109 96 88 80 82 107 132 109 107 133 166 173 175 180 182 192 188 184 184 177
265 322 309 291 299 304 312 320 25 348 333 294 274 127 122 113 115 113 110 110 115 109 99 88 89 92 96 104 108 111 96 100 130 139 155 177 189 187 203 200 204 202 194 187
274 287 293 294 290 283 285 307 35 19 337 330 343 133 131 121 94 83 102 111 120 99 98 103 100 98 105 106 124 103 98 122 137 154 173 185 177 178 170 147 191 204 193 180
284 277 270 273 271 283 252 275 302 150 307 294 308 264 149 120 146 97 86 70 49 106 103 94 99 94 123 115 86 100 119 152 164 174 180 182 189 195 183 174 173 166 183 176
297 276 268 272 268 273 275 274 266 254 207 245 299 237 161 154 126 123 124 119 111 92 72 97 99 85 116 144 154 159 173 191 187 189 187 192 186 181 185 175 169 162 159 168
281 285 271 274 254 264 275 263 254 244 243 188 259 224 174 125 125 119 105 122 188 128 102 67 62 11 46 208 181 203 219 216 201 196 190 199 193 192 187 178 171 169 168 167
257 246 249 256 263 251 257 250 240 221 143 169 138 130 125 122 118 113 106 89 83 94 99 79 77 344 327 240 213 211 213 202 203 214 203 206 202 202 195 187 178 172 176 176
240 247 257 267 256 231 240 246 236 183 143 138 119 94 72 81 126 119 116 106 105 110 112 265 306 314 302 275 231 223 223 204 199 213 209 209 211 208 202 198 188 178 173 174
351 239 229 297 360 325 315 299 245 116 108 119 123 111 104 107 115 112 107 120 160 194 160 261 327 301 282 276 282 265 243 224 204 211 209 208 212 215 202 202 196 186 177 174
22 17 35 38 26 31 51 69 87 99 111 111 113 112 104 107 108 123 176 132 64 61 2 311 320 310 292 287 267 268 265 251 238 220 218 206 205 210 212 205 202 195 190 185
8 30 43 60 73 70 74 88 104 113 118 128 130 124 123 122 109 123 204 191 143 338 316 315 314 302 300 322 321 294 279 257 252 242 228 218 213 212 214 210 205 202 198 193
15 30 38 46 64 68 70 93 99 97 96 105 118 120 134 135 139 159 41 358 336 329 328 318 316 313 310 304 294 282 284 280 263 249 237 225 220 220 219 215 210 205 204 199
6 9 22 30 38 105 102 98 111 118 115 141 137 128 134 103 109 6 296 120 340 332 327 311 318 322 324 309 288 282 283 276 269 259 246 232 225 223 222 218 215 211 208 206
355 359 355 353 155 173 112 113 112 123 132 141 130 172 201 198 192 135 52 334 315 308 311 326 331 328 322 305 294 286 279 279 274 268 256 244 232 229 227 227 221 218 215 210
344 334 264 304 283 157 138 161 168 170 173 178 174 190 227 313 308 71 7 343 333 355 342 344 345 339 338 323 318 311 313 304 296 288 269 243 230 232 238 233 233 231 222 212
344 344 326 302 271 308 215 199 212 187 201 184 207 186 188 195 203 221 358 14 351 353 347 343 352 357 12 22 30 30 19 22 36 48 58 123 205 218 222 219 224 219 217 206
357 1 355 353 320 253 227 227 236 223 224 209 190 170 201 201 189 181 325 59 9 4 359 1 11 23 39 57 61 61 62 59 61 71 76 80 88 102 126 153 174 181 189 193